Location: Rounton
(54.4000°N, 1.3500°W)
Time: 23:09:13
(UTC+00:00)

Explorer 7 - Pass Details

Date: 05 December 2021
Orbit: 483 x 674 km, 50.3° (Epoch: 17 January)

Event Time Altitude Azimuth Distance (km) Brightness Sun altitude
Rises 05:16:10 0° 209° (SSW) 2,834 - -23.8°
Exits shadow 05:19:03 10° 190° (S) 1,898 9.5 -23.3°
Reaches altitude 10° 05:19:04 10° 190° (S) 1,893 9.5 -23.3°
Maximum altitude 05:22:00 18° 147° (SSE) 1,412 9.3 -22.9°
Drops below altitude 10° 05:24:50 10° 104° (ESE) 1,817 10.6 -22.5°
Sets 05:27:32 0° 85° (E) 2,673 11.7 -22.1°
